Location: Unspecified
(48.7670°N, 0.0000°E)
Time: 07:18:15
(UTC+00:00)

Altair - Pass Details

Date: 06 October 2020
Orbit: 1502 x 1682 km, 47.2° (Epoch: 20 October)

Event Time Altitude Azimuth Distance (km) Brightness Sun altitude
Rises 19:15:27 0° 286° (WNW) 4,936 11.9 -18.5°
Reaches altitude 10° 19:20:50 10° 264° (W) 3,945 10.7 -19.3°
Maximum altitude 19:25:13 14° 237° (WSW) 3,638 10.0 -20.0°
Drops below altitude 10° 19:29:35 10° 211° (SSW) 3,917 9.8 -20.7°
Sets 19:34:57 0° 188° (S) 4,874 10.0 -21.6°
